User: anonymous   Login
Location: Brno
(49.2000°N, 16.6330°E)
Time: 18:48:59
(UTC+01:00)
Language:

Cosmos 1603 - Orbit

View from above orbital plane
View from above orbital plane
View from above satellite
View from above satellite

Ground track
Ground track

The orbit data is extracted from the following two-line orbital elements,

1 15333U 84106A   14327.19564631 -.00000192  00000-0 -75916-4 0  1354
2 15333 071.0282 254.2738 0020091 201.4140 300.7686 14.13967619555813
Epoch (UTC): 23 November 2014 04:41:43
Eccentricity: 0.0020091
inclination: 71.0282°
perigee height: 831 km
apogee height: 860 km
right ascension of ascending node: 254.2738°
argument of perigee: 201.4140°
revolutions per day: 14.13967619
mean anomaly at epoch: 300.7686°
orbit number at epoch: 55581

The dashed part of the orbit path shows where the satellite is in the earth's shadow,  

DLR